Miscellaneous Local Product
Issued by NWS North Platte, NE

Home | Current Version | Previous Version | Text Only | Print | Product List | Glossary On
Versions: 1 2 3 4 5 6 7 8 9 10 11 12 13 14 15 16 17 18 19 20 21 22 23 24 25 26 27 28 29 30 31 32 33 34 35 36 37 38 39 40 41 42 43 44 45 46 47 48 49 50
000
AXUS43 KLBF 231510
MISLBF


WESTERN AND NORTH CENTRAL NEBRASKA HOURLY WEATHER ROUNDUP
NATIONAL WEATHER SERVICE NORTH PLATTE NE
900 AM CST FRI JAN 23 2015

***STATIONS NOT REPORTING VARIABLES SUCH AS SKY/WEATHER OR
PRESSURE ARE PROVIDED BY THE NEBRASKA DEPARTMENT OF
ROADS...RAWS...AND APRS NETWORKS...AND ARE NOT UNDER
NATIONAL WEATHER SERVICE QUALITY CONTROL***

...OBSERVATIONS IN AND NEAR THE EASTERN PANHANDLE OF NEBRASKA...

CITY           SKY/WX    TMP DP  RH WIND       PRES   REMARKS
PINE RIDGE     CLEAR     23  16  74 SW3       30.13R
CHADRON        PTCLDY    35  21  56 NW18G28   30.13R WCI  24
ALLIANCE       PTCLDY    23  18  81 W12       30.10S WCI  12
SIDNEY         PTCLDY    32  15  49 NW21      30.12R WCI  20
$$

...OBSERVATIONS IN NORTH CENTRAL NEBRASKA...

CITY           SKY/WX    TMP DP  RH WIND       PRES   REMARKS
VALENTINE      CLOUDY    32  22  66 W12       30.04S WCI  23
THEDFORD       MOCLDY    31  22  67 W8        30.06R WCI  24
AINSWORTH      MOCLDY    32  21  65 W8        30.03S WCI  25
O`NEILL        CLOUDY    34  23  66 W10       30.01R WCI  26
ORD            PTCLDY    24  18  77 N5        30.03R WCI  18
BROKEN BOW     PTCLDY    31  18  58 NW7       30.04R WCI  24
$$

...OBSERVATIONS IN SOUTHWEST NEBRASKA AND FAR NORTHEAST COLORADO...

CITY           SKY/WX    TMP DP  RH WIND       PRES   REMARKS
WRAY           FAIR      28  21  76 W8        30.12S WCI  19
HOLYOKE        FAIR      34  21  60 NW13G20   30.11R WCI  25
IMPERIAL       CLEAR     28  17  63 NW16      30.09S WCI  16
OGALLALA       PTCLDY    28  22  75 W8        30.09S WCI  20
NORTH PLATTE   PTCLDY    20  16  84 NW8       30.08R WCI  10
MCCOOK         CLEAR     23  15  71 W13       30.09F WCI  11
LEXINGTON      PTCLDY    21  17  83 NW6       30.06R WCI  13
$$

...NORTH PLATTE AREA...

CITY           SKY/WX    TMP DP  RH WIND       PRES   REMARKS
AIRPORT        PTCLDY    20  16  84 NW8       30.08R WCI  10
$$

...SOME WEATHER OBSERVATIONS FROM AROUND THE REGION...

CITY           SKY/WX    TMP DP  RH WIND       PRES   REMARKS
DENVER         PTCLDY    28  11  48 SW9       30.17R WCI  19
LARAMIE        CLOUDY    16   6  65 N3        30.21R
CHEYENNE       CLOUDY    32   7  35 NW14G23   30.17R WCI  22
SCOTTSBLUFF    CLOUDY    30  19  63 W13       30.15S WCI  20
RAPID CITY     CLOUDY    41  25  53 NW16      30.09R
PIERRE         CLOUDY    36  26  67 W10       30.01R WCI  28
WINNER         FAIR      38  22  52 NW14      30.01S WCI  30
SIOUX FALLS    CLOUDY    30  22  72 W7        29.97S WCI  23
OMAHA          MOSUNNY   24  20  84 S13       30.10F WCI  12
GRAND ISLAND   SUNNY     26  18  71 SW9       30.03F WCI  17
KANSAS CITY    SUNNY     26  24  92 S10       30.20F WCI  16
WICHITA        SUNNY     28  23  81 SW6       30.22F WCI  22
HAYS           SUNNY     19   9  63 W7        30.14F WCI  10
LIBERAL        SUNNY     21  16  79 NW12      30.20S WCI   9
GOODLAND       MOCLDY    29  17  61 W14       30.12S WCI  18
$$



USA.gov is the U.S. government's official web portal to all federal, state and local government web resources and services.